Home   Weather   Maceió   Past weeks

Flag for Brazil Past Weather in Maceió, Alagoas, Brazil — Yesterday and Last 2 Weeks

Now
77 °F

Clear.


Feels Like: 78 °F
Forecast: 76 / 86 °F
Wind: 9 mph from East

Location: Maceio Aeroporto

Current Time: Jan 24, 2017 at 4:04:28 am

Latest Report: Jan 24, 2017 at 3:00 am


Visibility: 10 mi

Pressure: 29.92 "Hg

Humidity: 83%

Dew Point: 72 °F

Location of MaceióLocation

Past Weather in Maceió — Graph

°F

Maceió Temperature Yesterday

Maximum temperature yesterday: 88 °F (at 10:00 am)
Minimum temperature yesterday: 73 °F (at 2:00 am)
Average temperature yesterday: 81 °F

High & Low Weather Summary for the Past Weeks

 TemperatureHumidityPressure
High90 °F (Jan 21, 12:00 pm)100% (Jan 10, 5:00 am)29.98 "Hg (Jan 10, 5:00 am)
Low72 °F (Jan 9, 6:00 am)46% (Jan 19, 12:00 pm)29.80 "Hg (Jan 14, 2:00 pm)
Average80 °F75%29.90 "Hg
* Reported Jan 9 2:00 am — Jan 24 2:00 am, Maceió, Weather by CustomWeather, © 2017

Note: Actual official high and low records may vary slightly from our data, if they occured in-between our weather recording intervals... More about our weather records

Advertising

Maceió Weather History for the Previous 24 Hours

Scroll right to see more
 ConditionsComfort  
Time TempWeatherWind HumidityBarometerVisibility
2:00 am
Tue, Jan 24
79 °FPassing clouds.13 mph84%29.92 "HgN/A
1:00 am79 °FPassing clouds.10 mph84%29.92 "HgN/A
12:00 am79 °FPassing clouds.12 mph84%29.95 "HgN/A
11:00 pm
Mon, Jan 23
79 °FPassing clouds.12 mph84%29.95 "HgN/A
10:00 pm79 °FPassing clouds.9 mph84%29.98 "HgN/A
9:00 pm81 °FPassing clouds.10 mph79%29.95 "HgN/A
8:00 pm81 °FPassing clouds.14 mph79%29.95 "HgN/A
7:00 pm81 °FPassing clouds.13 mph79%29.92 "HgN/A
6:00 pm81 °FPassing clouds.14 mph74%29.92 "HgN/A
5:00 pm82 °FScattered clouds.16 mph70%29.89 "HgN/A
4:00 pm86 °FScattered clouds.15 mph62%29.89 "HgN/A
3:00 pm86 °FScattered clouds.17 mph62%29.89 "HgN/A
2:00 pm88 °FScattered clouds.16 mph59%29.89 "HgN/A
1:00 pm88 °FScattered clouds.14 mph59%29.92 "HgN/A
12:00 pm86 °FPartly sunny.16 mph62%29.92 "HgN/A
11:00 am88 °FScattered clouds.14 mph59%29.95 "HgN/A
10:00 am88 °FPartly sunny.16 mph59%29.95 "HgN/A
9:00 am84 °FPartly sunny.5 mph66%29.95 "HgN/A
8:00 am82 °FScattered clouds.6 mph74%29.95 "HgN/A
7:00 am79 °FScattered clouds.2 mph89%29.95 "HgN/A
6:00 am75 °FScattered clouds.5 mph94%29.92 "HgN/A
5:00 am73 °FPassing clouds.2 mph94%29.92 "HgN/A
4:00 am75 °FPassing clouds.2 mph94%29.89 "HgN/A
Weather by CustomWeather, © 2017

See weather overviewHow to use our weather pages